Ewiger Ausgleich
| Name | Ewiger Ausgleich |
|---|---|
| Muster | Equilibrium |
| Art | Verzauberung |
| Beschreibung | Immer wenn du einen Kreaturenzauber ausspielst, kannst du |
| Geschmack | Suche einen Ausgleich in allen Dingen — aber achte darauf, dass die Waagschalen zu deinen Gunsten auspendeln. —Vodalische Redewendung |
| Künstler | Don Hazeltine |
| Edition | Mystery Booster 2 #162 |
| Tapete | |
| Bild |
Um Ewiger Ausgleich
Ewiger Ausgleich, Verzauberung, entworfen von Jeff Miracola Erstveröffentlichung in Mai 2020 bei der Bearbeitung Exodus und wurde genau in gedruckt 5 verschiedene Formen. Es wird derzeit zum niedrigsten Preis von verkauft € 1,72. Es ist eine Schlüsselkarte drin 4 Combos.
Ein Deck, das sich auf Tempo und die Kontrolle des Spielfelds konzentriert, würde davon profitieren, Equilibrium einzuschließen, da es eine Möglichkeit bietet, den Spielzustand des Gegners zu stören, indem es ihre Kreaturen zurück in ihre Hand zurückspringt, was strategische Spielzüge ermöglicht und die Kontrolle aufrechterhält. Während Equilibrium in bestimmten Situationen effektiv sein kann, gibt es potenziell bessere Optionen wie Reflector Mage oder Venser, Shaper Savant, die ähnliche Effekte mit zusätzlicher Vielseitigkeit oder Stärke bieten. Ob Equilibrium gespielt werden sollte, hängt von der spezifischen Strategie und Synergie des Decks sowie dem aktuellen Metagame ab.
Regeln
01/08/2008
The ability will still resolve even if the spell that triggered it gets countered.
01/04/2008
Ein „Kreaturenzauber“ ist jeder Zauber mit dem Typ Kreatur, selbst wenn er andere Typen wie Artefakt oder Verzauberung hat. Ältere Karten des Typs Summon sind ebenfalls Kreaturenzauber.
Wo zu kaufen
![]() | Card Kingdom | 39 uni.
| € 1,72 | Shop besuchen |
![]() | Ebay.com | Shop besuchen | ||
![]() | Cardkingdom | Shop besuchen | ||
![]() | Printing proxies | $ 0.75 | Shop besuchen |
*Diese Website enthält Affiliate-Links, für die wir möglicherweise eine Vergütung erhalten
Eine Gruppe
Preisalarm ?
Benachrichtigen Sie mich, wenn der Preis hereinkommt
Geschichte der Preisentwicklung

Preisgeschichte
| Datum | Minimaler Preis | Durchschnittlicher Preis | Decks |
|---|---|---|---|
| 2024-09-05 | 3.78 EUR | 4.33 EUR | 1 |
| 2024-09-09 | 3.68 EUR | 4.22 EUR | 1 |
| 2024-09-16 | 3.60 EUR | 4.14 EUR | 1 |
| 2024-09-23 | 3.67 EUR | 4.09 EUR | 0 |
| 2024-09-30 | 3.66 EUR | 4.16 EUR | 0 |
| 2024-10-07 | 3.72 EUR | 4.27 EUR | 0 |
| 2024-10-14 | 3.78 EUR | 4.44 EUR | 0 |
| 2024-10-21 | 3.83 EUR | 4.49 EUR | 1 |
| 2024-10-28 | 3.85 EUR | 4.56 EUR | 0 |
| 2024-11-06 | 3.85 EUR | 4.55 EUR | 0 |
| 2024-11-11 | 3.84 EUR | 4.49 EUR | 1 |
| 2024-11-18 | 3.85 EUR | 4.45 EUR | 0 |
| 2024-11-25 | 3.85 EUR | 4.37 EUR | 0 |
| 2024-12-02 | 3.56 EUR | 4.36 EUR | 0 |
| 2024-12-09 | 3.57 EUR | 4.36 EUR | 0 |
| 2024-12-19 | 3.57 EUR | 4.36 EUR | 0 |
| 2024-12-23 | 3.57 EUR | 4.36 EUR | 0 |
| 2024-12-30 | 3.57 EUR | 4.36 EUR | 1 |
| 2025-01-01 | 3.57 EUR | 4.36 EUR | 0 |
| 2025-01-06 | 3.57 EUR | 4.36 EUR | 1 |
| 2025-01-13 | 3.57 EUR | 4.36 EUR | 0 |
| 2025-01-20 | 3.57 EUR | 4.36 EUR | 0 |
| 2025-01-27 | 3.57 EUR | 4.36 EUR | 1 |
| 2025-02-03 | 3.57 EUR | 4.36 EUR | 0 |
| 2025-02-10 | 3.36 EUR | 3.88 EUR | 0 |
| 2025-02-18 | 2.40 EUR | 3.80 EUR | 0 |
| 2025-04-27 | 1.24 EUR | 3.30 EUR | 0 |
| 2025-04-28 | 1.10 EUR | 3.22 EUR | 0 |
| 2025-05-06 | 0.95 EUR | 3.03 EUR | 0 |
| 2025-05-12 | 1.24 EUR | 3.12 EUR | 0 |
| 2025-05-19 | 1.31 EUR | 2.98 EUR | 0 |
| 2025-05-28 | 1.43 EUR | 2.95 EUR | 0 |
| 2025-06-03 | 1.43 EUR | 2.98 EUR | 0 |
| 2025-06-10 | 1.40 EUR | 2.89 EUR | 0 |
| 2025-06-17 | 1.39 EUR | 2.85 EUR | 0 |
| 2025-06-23 | 1.69 EUR | 2.95 EUR | 1 |
| 2025-07-01 | 1.66 EUR | 2.98 EUR | 0 |
| 2025-07-08 | 1.66 EUR | 2.97 EUR | 0 |
| 2025-07-15 | 1.69 EUR | 3.07 EUR | 0 |
| 2025-07-22 | 1.82 EUR | 3.00 EUR | 0 |
| 2025-07-29 | 1.37 EUR | 2.98 EUR | 0 |
| 2025-08-05 | 1.21 EUR | 2.89 EUR | 1 |
| 2025-08-12 | 1.09 EUR | 2.61 EUR | 1 |
| 2025-08-18 | 0.91 EUR | 2.63 EUR | 0 |
| 2025-08-25 | 1.02 EUR | 2.74 EUR | 0 |
| 2025-09-02 | 1.19 EUR | 2.60 EUR | 0 |
| 2025-09-09 | 1.19 EUR | 2.56 EUR | 0 |
| 2025-09-15 | 1.67 EUR | 2.20 EUR | 0 |
| 2025-09-23 | 1.80 EUR | 2.02 EUR | 0 |
| 2025-09-29 | 1.99 EUR | 2.22 EUR | 0 |
| 2025-10-06 | 2.12 EUR | 2.35 EUR | 0 |
| 2025-10-13 | 2.31 EUR | 2.55 EUR | 0 |
| 2025-10-20 | 2.31 EUR | 2.46 EUR | 0 |
| 2025-10-27 | 2.48 EUR | 2.51 EUR | 0 |
| 2025-11-03 | 2.26 EUR | 2.32 EUR | 0 |
| 2025-11-10 | 2.11 EUR | 2.16 EUR | 0 |
| 2025-11-18 | 2.07 EUR | 2.08 EUR | 0 |
| 2025-11-24 | 2.04 EUR | 2.16 EUR | 0 |
| 2025-12-03 | 1.80 EUR | 2.12 EUR | 0 |
| 2025-12-08 | 1.83 EUR | 2.52 EUR | 0 |
| 2025-12-15 | 1.74 EUR | 3.51 EUR | 0 |
| 2025-12-22 | 1.68 EUR | 3.55 EUR | 0 |
| 2025-12-29 | 1.68 EUR | 2.48 EUR | 0 |
| 2026-01-01 | 2.54 EUR | 2.89 EUR | 0 |
| 2026-01-05 | 37.96 EUR | 2.13 EUR | 0 |
| 2026-01-13 | 24.30 EUR | 3.69 EUR | 0 |
| 2026-01-20 | 2.47 EUR | 3.10 EUR | 0 |
| 2026-01-26 | 2.66 EUR | 3.54 EUR | 0 |
| 2026-02-02 | 2.98 EUR | 3.55 EUR | 0 |
| 2026-02-09 | 3.08 EUR | 3.48 EUR | 0 |
| 2026-02-16 | 2.96 EUR | 3.25 EUR | 0 |
| 2026-02-23 | 2.90 EUR | 3.05 EUR | 1 |
| 2026-03-02 | 3.08 EUR | 3.19 EUR | 0 |
| 2026-03-10 | 3.50 EUR | 3.51 EUR | 0 |
| 2026-03-16 | 3.22 EUR | 3.62 EUR | 0 |
| 2026-04-02 | 2.62 EUR | 3.28 EUR | 0 |
| 2026-04-07 | 2.41 EUR | 2.93 EUR | 0 |
| 2026-04-14 | 2.30 EUR | 2.68 EUR | 0 |
| 2026-04-23 | 2.10 EUR | 2.53 EUR | 0 |
| 2026-04-30 | 1.98 EUR | 2.25 EUR | 0 |
| 2026-05-05 | 1.92 EUR | 2.17 EUR | 1 |
| 2026-05-14 | 2.03 EUR | 2.19 EUR | 0 |
| 2026-05-20 | 2.11 EUR | 2.11 EUR | 0 |
| 2026-05-25 | 2.00 EUR | 2.00 EUR | 1 |
| 2026-06-01 | 1.86 EUR | 1.91 EUR | 0 |
| 2026-06-08 | 1.78 EUR | 1.87 EUR | 0 |
| 2026-06-15 | 1.98 EUR | 1.98 EUR | 0 |
| 2026-06-23 | 1.90 EUR | 1.98 EUR | 0 |
| 2026-06-29 | 1.74 EUR | 2.01 EUR | 0 |
| 2026-07-06 | 1.48 EUR | 2.18 EUR | 0 |
| 2026-07-13 | 0.93 EUR | 2.28 EUR | 0 |
| 2026-07-20 | 1.11 EUR | 2.52 EUR | 0 |
| 2026-07-27 | 0.94 EUR | 2.53 EUR | 0 |
| 2026-08-03 | 0.86 EUR | 2.49 EUR | 0 |
| 2026-08-10 | 1.43 EUR | 2.61 EUR | 0 |
| 2026-08-17 | 2.20 EUR | 2.79 EUR | 0 |
| 2026-08-24 | 2.00 EUR | 2.57 EUR | 0 |
| 2026-09-01 | 1.94 EUR | 2.48 EUR | 0 |
Häufig gestellte Fragen zu Ewiger Ausgleich
Welcher Kartentyp ist Ewiger Ausgleich?
Ewiger Ausgleich ist Verzauberung Karte hinein Magic: the Gathering MTG.
Welchen Effekt hat Ewiger Ausgleich?
Immer wenn du einen Kreaturenzauber ausspielst, kannst du {1} bezahlen. Falls du dies tust, bringe eine Kreatur deiner Wahl auf die Hand ihres Besitzers zurück.
Was kostet Ewiger Ausgleich?
Ewiger Ausgleich beginnt derzeit um € 1,72. Sehen Sie sich die Live-Preise mehrerer Verkäufer oben im Abschnitt „Wo kaufen“ an.
Aus welchem Set stammt Ewiger Ausgleich?
Ewiger Ausgleich wurde erstmals im Set veröffentlicht Exodus, illustriert von Jeff Miracola.
Wie ist die Legalität von Ewiger Ausgleich?
Die Legalität hängt vom Turnierformat ab – Ewiger Ausgleich kann in einigen Formaten legal und in anderen verboten oder eingeschränkt sein. Die vollständige Aufschlüsselung nach Format finden Sie oben im Abschnitt „Rechtmäßigkeit“.
Welche Combos gibt es mit Ewiger Ausgleich?
Ewiger Ausgleich ist eine Schlüsselkarte 4 Combo(s) in unserer Combo-Datenbank, verlinkt im Abschnitt „Combos“ dieser Seite.
Welche Karten ähneln Ewiger Ausgleich?
Buchstaben ähnlich Ewiger Ausgleich enthalten Glen Elendra Pranksters, Feigheit. Die vollständige Liste finden Sie oben im Abschnitt „Ähnliche Karten“.





Reaktionen
0
0 Kommentare
Sei der erste der kommentiert